Location: Omaha
(41.2590°N, 95.9380°W)
Time: 00:53:20
(UTC-05:00)

Tiangong 2 - Pass Details

Date: 16 October 2017
Orbit: 388 x 392 km, 42.8° (Epoch: 17 October)

Event Time Altitude Azimuth Distance (km) Brightness Sun altitude
Exits shadow 06:45:26 16° 282° (WNW) 1,114 2.7 -10.4°
Maximum altitude 06:47:53 82° 197° (SSW) 397 1.1 -10.0°
Drops below altitude 10° 06:51:05 10° 108° (ESE) 1,419 5.4 -9.4°
Sets 06:53:10 0° 108° (ESE) 2,273 6.9 -9.0°
